Location: Unspecified
(0.0000°N, 0.0000°E)
Time: 02:41:08
(UTC+00:00)

COSMOS 2508 - Pass Details

Date: 06 October 2020
Orbit: 1484 x 1504 km, 82.5° (Epoch: 20 October)

Event Time Altitude Azimuth Distance (km) Brightness Sun altitude
Rises 18:44:43 0° 192° (SSW) 4,626 ? -14.1°
Reaches altitude 10° 18:47:39 10° 196° (SSW) 3,646 ? -14.9°
Maximum altitude 18:56:13 59° 273° (W) 1,702 ? -17.0°
Drops below altitude 10° 19:04:48 10° 350° (N) 3,647 ? -19.1°
Sets 19:07:45 0° 355° (N) 4,627 ? -19.9°
